Lawrenceville, GA

8:20 PM EST on November 20, 2019 (GMT -0500)
Gwinnett County-Briscoe

Weather History for KLZU - September, 2019

Change the Weather History Date:

Monday, September 16, 2019

  Actual Average (WUND) Record (WUND)
Temperature  
Mean Temperature 80 °F -  
Max Temperature 93 °F - - (-1)
Min Temperature 66 °F - - (-1)
Cooling Degree Days 14    
Growing Degree Days 30 (Base 50)    
Moisture  
Dew Point 68 °F    
Average Humidity 74    
Maximum Humidity 100    
Minimum Humidity 39    
Precipitation  
Precipitation 0.00 in - - ()
Sea Level Pressure  
Sea Level Pressure 30.08 in    
Wind  
Wind Speed 2 mph (East)    
Max Wind Speed 8 mph    
Max Gust Speed -    
Visibility 8 miles    
Events      
Averages and records for this station are not official NWS values.
T = Trace of Precipitation, MM = Missing Value Source: NWS Daily Summary

Daily Weather History Graph

Daily Weather History Graph

Search for Another Location

Airport or City:

Astronomy

Sep. 16, 2019 Rise Set
Actual Time 7:19 AM EDT 7:41 PM EDT
Civil Twilight 6:54 AM EDT 8:06 PM EDT
Nautical Twilight 6:25 AM EDT 8:35 PM EDT
Astronomical Twilight 5:55 AM EDT 9:05 PM EDT
Moon 9:21 PM EDT (9/16) 9:21 AM EDT (9/16)
Length of Visible Light 13h 11m
Length of Day
12h 21m
Waning Gibbous, 94% of the Moon is Illuminated
Sep 16
Waning Gibbous
Sep 21
Last Quarter
Sep 28
New
Oct 5
First Quarter
Oct 13
Full

Hourly Weather History & Observations

Time (EDT) Temp. Heat Index Dew Point Humidity Pressure Visibility Wind Dir Wind Speed Gust Speed Precip Events Conditions
12:56 AM 70.0 °F - 70.0 °F 100% 30.12 in 9.0 mi Calm Calm - N/A   Clear
2:56 AM 69.1 °F - 69.1 °F 100% 30.11 in 6.0 mi Calm Calm - N/A   Clear
3:56 AM 68.0 °F - 68.0 °F 100% 30.10 in 5.0 mi Calm Calm - N/A   Clear
4:56 AM 68.0 °F - 68.0 °F 100% 30.10 in 7.0 mi Calm Calm - N/A   Clear
5:56 AM 66.9 °F - 66.9 °F 100% 30.11 in 6.0 mi Calm Calm - N/A   Clear
6:56 AM 68.0 °F - 68.0 °F 100% 30.12 in 7.0 mi Calm Calm - N/A   Clear
7:56 AM 69.1 °F - 69.1 °F 100% 30.13 in 7.0 mi Calm Calm - N/A   Clear
8:56 AM 77.0 °F - 72.0 °F 84% 30.14 in 7.0 mi Variable 3.5 mph - N/A   Clear
9:56 AM 80.1 °F 83.6 °F 71.1 °F 74% 30.15 in 6.0 mi Variable 5.8 mph - N/A   Haze
10:56 AM 82.9 °F 87.5 °F 71.1 °F 67% 30.15 in 7.0 mi East 4.6 mph - N/A   Clear
11:56 AM 84.9 °F 90.1 °F 71.1 °F 63% 30.13 in 10.0 mi Variable 3.5 mph - N/A   Clear
12:56 PM 89.1 °F 94.1 °F 70.0 °F 53% 30.10 in 5.0 mi Variable 3.5 mph - N/A   Haze
1:56 PM 91.9 °F 94.1 °F 64.9 °F 41% 30.08 in 10.0 mi Variable 4.6 mph - N/A   Clear
2:56 PM 91.9 °F 93.3 °F 64.0 °F 39% 30.05 in 10.0 mi Calm Calm - N/A   Scattered Clouds
3:56 PM 93.0 °F 95.0 °F 64.9 °F 39% 30.03 in 10.0 mi ENE 6.9 mph - N/A   Scattered Clouds
4:56 PM 93.0 °F 95.0 °F 64.9 °F 39% 30.01 in 10.0 mi East 8.1 mph - N/A   Scattered Clouds
5:56 PM 91.9 °F 93.3 °F 64.0 °F 39% 30.01 in 10.0 mi ESE 6.9 mph - N/A   Partly Cloudy
6:56 PM 90.0 °F 92.4 °F 66.0 °F 45% 30.01 in 10.0 mi East 3.5 mph - N/A   Clear
7:56 PM 81.0 °F 83.8 °F 68.0 °F 65% 30.02 in 10.0 mi Calm Calm - N/A   Clear
8:56 PM 75.9 °F - 70.0 °F 82% 30.02 in 10.0 mi Calm Calm - N/A   Clear
9:56 PM 73.9 °F - 70.0 °F 87% 30.04 in 10.0 mi Calm Calm - N/A   Clear
10:56 PM 72.0 °F - 69.1 °F 91% 30.04 in 10.0 mi Calm Calm - N/A   Clear
11:56 PM 71.1 °F - 68.0 °F 90% 30.04 in 10.0 mi Calm Calm - N/A   Clear